Notices

What's New in latest Release from April 7th, 2021:

- Updated Glossary, including Speed of Maximum Gust, and Total Hourly Precipitation

- Updated national and regional climate services offices contacts and prices information

- Addition of station inventory lists for 1981-2010, 1971-2000, and 1961-1990 Normals.

If you haven't already, please take our survey and provide feedback about our website: https://eccc.sondage-survey.ca/f/LanguageSelection.aspx?s=442ca660-fcf1-47c0-95a9-59707d6fd709

Hourly Data Report for March 27, 2020

MIRAMICHI RCS
NEW BRUNSWICK
Current Station Operator: ECCC - MSC

47°00'34.000" N
65°27'54.000" W
33.00 m
8100989
71744
ACQ

Download Data

Hourly Data (March 2020)
Hourly Data Report for March 27, 2020
TIME
LST
Temp Definition
°C
Dew Point Definition
°C
Rel Hum Definition
%
Precip. Amount Definition
mm

Wind Dir Definition
10's deg

Wind Spd Definition
km/h
Visibility Definition
km
Stn Press Definition
kPa
Hmdx Definition


Wind Chill Definition


Weather Definition


00:00 -1.1 -3.7 82 LegendMM 5 16   100.50   -6 LegendNANA
01:00 -1.3 -3.8 83 LegendMM 4 14   100.36   -6 LegendNANA
02:00 -1.5 -3.7 85 LegendMM 4 15   100.27   -6 LegendNANA
03:00 -1.6 -3.4 87 LegendMM 1 9   100.23   -5 LegendNANA
04:00 -1.7 -3.6 87 LegendMM 3 10   100.11   -5 LegendNANA
05:00 -1.5 -4.0 83 LegendMM 1 9   100.07   -5 LegendNANA
06:00 -1.5 -3.8 84 LegendMM 1 11   100.04   -5 LegendNANA
07:00 -1.6 -2.9 91 LegendMM 34 5   100.05   -3 LegendNANA
08:00 -1.3 -2.6 91 LegendMM 36 8   99.97   -4 LegendNANA
09:00 -0.8 -2.9 86 LegendMM 1 11   99.90   -5 LegendNANA
10:00 -0.2 -3.3 80 LegendMM 36 11   99.88   -4 LegendNANA
11:00 0.0 -3.4 78 LegendMM 33 13   99.86   -4 LegendNANA
12:00 0.4 -2.6 80 LegendMM 30 13   99.80     LegendNANA
13:00 1.7 -3.0 71 LegendMM 30 15   99.79     LegendNANA
14:00 3.4 -3.8 59 LegendMM 31 11   99.75     LegendNANA
15:00 3.3 -2.4 66 LegendMM 28 15   99.74     LegendNANA
16:00 4.8 -3.2 56 LegendMM 32 13   99.75     LegendNANA
17:00 4.7 -3.9 54 LegendMM 31 18   99.84     LegendNANA
18:00 4.2 -6.3 46 LegendMM 33 16   99.93     LegendNANA
19:00 3.4 -7.5 45 LegendMM 30 15   100.02     LegendNANA
20:00 3.1 -5.2 54 LegendMM 30 17   100.08     LegendNANA
21:00 2.5 -4.6 60 LegendMM 29 17   100.14     LegendNANA
22:00 2.5 -4.6 59 LegendMM 30 18   100.20     LegendNANA
23:00 1.9 -4.7 61 LegendMM 30 16   100.25     LegendNANA

Notes on Data Quality.

Legend

  • E = Estimated
  • M = Missing
  • NA = Not Available*
  • [empty] = Indicates an unobserved value
Date modified: